Miscellaneous Local Product
Issued by NWS North Platte, NE

Home | Current Version | Previous Version | Text Only | Print | Product List | Glossary On
Versions: 1 2 3 4 5 6 7 8 9 10 11 12 13 14 15 16 17 18 19 20 21 22 23 24 25 26 27 28 29 30 31 32 33 34 35 36 37 38 39 40 41 42 43 44 45 46 47 48 49 50
000
AXUS43 KLBF 100810
MISLBF


WESTERN AND NORTH CENTRAL NEBRASKA HOURLY WEATHER ROUNDUP
NATIONAL WEATHER SERVICE NORTH PLATTE NE
200 AM CST SAT DEC 10 2016

NOTE: "FAIR" INDICATES FEW OR NO CLOUDS BELOW 12,000 FEET WITH NO
SIGNIFICANT WEATHER AND/OR OBSTRUCTIONS TO VISIBILITY.

NOTE: STATIONS NOT REPORTING VARIABLES SUCH AS SKY/WEATHER OR
PRESSURE ARE PROVIDED BY RAWS AND APRS NETWORKS AND ARE NOT UNDER
NATIONAL WEATHER SERVICE QUALITY CONTROL.

...OBSERVATIONS IN AND NEAR THE EASTERN PANHANDLE OF NEBRASKA...

CITY           SKY/WX    TMP DP  RH WIND       PRES   REMARKS
PINE RIDGE     CLOUDY     6   2  83 E8        30.19F WCI  -7
CHADRON        CLOUDY     8   2  76 NE9       30.15F WCI  -5
ALLIANCE       CLOUDY    11   6  81 SE9       30.10F WCI  -2
SIDNEY         CLOUDY    19  15  84 SE7       30.08F WCI  10
CRESCENT LAKE    N/A     10   6  84 E7G15       N/A  WCI  -1
$$

...OBSERVATIONS IN NORTHERN NEBRASKA AND FAR SOUTHERN SOUTH DAKOTA...

CITY           SKY/WX    TMP DP  RH WIND       PRES   REMARKS
WINNER         CLOUDY     5   1  83 NE5       30.40F WCI  -4
VALENTINE      LGT SNOW   6   2  83 NE7       30.31F FOG     WCI  -6
THEDFORD       LGT SNOW  11   8  87 E6        30.27F WCI   1
AINSWORTH      LGT SNOW   9   7  93 E8        30.31F VSB 1   WCI  -3
O`NEILL        CLOUDY    11   9  89 NE7       30.40S WCI   0
ORD            CLOUDY    16  10  77 E3        30.34F
BROKEN BOW     CLOUDY    20  14  77 SE9       30.29S WCI   9
VALENTINE NWR    N/A      7   3  83 E6          N/A  WCI  -3
BUTTE            N/A      5   2  88 N9          N/A  WCI  -9
HALSEY           N/A      9   5  84 NE5         N/A  WCI   1
CHAMBERS         N/A     11   0  60 N3          N/A
EWING            N/A     13  11  90 CALM        N/A
$$

...OBSERVATIONS IN SOUTHWEST NEBRASKA AND FAR NORTHEAST COLORADO...

CITY           SKY/WX    TMP DP  RH WIND       PRES   REMARKS
HOLYOKE        FAIR      21  18  86 E5        30.13F WCI  15
IMPERIAL       CLOUDY    18  13  80 SE6       30.17F WCI  10
OGALLALA       CLOUDY    18  13  80 NE7       30.18S WCI   9
NORTH PLATTE   CLOUDY    17  11  77 E9        30.24F WCI   6
MCCOOK         CLOUDY    17  12  80 E6        30.23F WCI   9
LEXINGTON      CLOUDY    18  12  79 SE8       30.28F WCI   7
STAPLETON        N/A     13   9  83 CALM        N/A
GOTHENBURG       N/A     17  13  82 E3          N/A
CALLAWAY         N/A     18  13  80 SE10        N/A  WCI   6
$$

...OBSERVATIONS IN CENTRAL LINCOLN COUNTY AREA...

CITY           SKY/WX    TMP DP  RH WIND       PRES   REMARKS
N.P. AIRPORT   CLOUDY    17  11  77 E9        30.24F WCI   6
N.P. DOWNTOWN    N/A     17  13  82 E3          N/A
N.P. SOUTHEAST   N/A     16  11  81 E3          N/A
N.P. HILLCREST   N/A     17  12  82 E9          N/A  WCI   6
$$

...SOME OBSERVATIONS FROM AROUND THE REGION...

CITY           SKY/WX    TMP DP  RH WIND       PRES   REMARKS
LARAMIE        CLOUDY    35  23  61 SW10        N/A  WCI  27
CHEYENNE       CLOUDY    25  19  78 SW8       30.01F WCI  16
DENVER         CLOUDY    23  19  85 SW16      30.01F FOG     WCI  10
AKRON          CLOUDY    23  17  78 S14       30.04F WCI  11
SCOTTSBLUFF    CLOUDY    15   8  73 E15       30.06F WCI   0
RAPID CITY     LGT SNOW   3  -2  79 SE15      30.18F WCI -16
BISMARCK       CLOUDY   -16 -21  78 E6        30.48S WCI -31
PIERRE         CLOUDY    -3  -9  75 NE8       30.42F WCI -18
SIOUX FALLS    CLOUDY    10   6  84 NE8       30.45F WCI  -2
OMAHA          CLOUDY    23  12  62 SE6       30.48F WCI  16
GRAND ISLAND   CLOUDY    19  15  84 SE9       30.36F WCI   8
KANSAS CITY    CLOUDY    27  11  51 S6        30.49S WCI  20
WICHITA        CLOUDY    21  13  71 SE7       30.42F WCI  12
OKLAHOMA CITY  CLOUDY    33  17  51 S10       30.41F WCI  25
DALLAS         CLOUDY    37  21  52 SE9       30.47F WCI  30
AMARILLO       CLOUDY    27  26  96 S12       30.19F WCI  17
DODGE CITY     CLOUDY    19  14  81 S12       30.26F WCI   7
HAYS           CLOUDY    15  11  83 SE7       30.33F WCI   5
GOODLAND       CLOUDY    23  19  85 S7        30.13F WCI  15
$$




USA.gov is the U.S. government's official web portal to all federal, state and local government web resources and services.